Flag for U.S.A. Weather past 2 weeks in Albany, New York, U.S.A.

Now
54 °F

Broken clouds.


Feels Like: 54 °F
Forecast: 48 / 59 °F
Wind: No wind

Location: Albany County Airport

Current Time: Oct 21, 2014 at 2:24:32 PM

Latest Report: Oct 21, 2014 at 1:51 PM


Visibility: 10 mi

Pressure: 29.91 "Hg

Humidity: 83%

Dew point: 49 °F

Location of AlbanyLocation

Historic Weather in Albany — Graph

°F

Albany temperature yesterday

Maximum temperature yesterday: 55 °F (at 2:51 PM)
Minimum temperature yesterday: 31 °F (at 5:51 AM)
Average temperature yesterday: 45 °F

Past Weeks' High & Low Weather Summary

 TemperatureHumidityPressure
High78 °F (Oct 15, 1:51 PM)97% (Oct 13, 5:03 AM)30.32 "Hg (Oct 13, 5:03 AM)
Low31 °F (Oct 20, 5:51 AM)35% (Oct 6, 4:51 PM)29.54 "Hg (Oct 18, 7:51 AM)
Average57 °F68%29.95 "Hg
* Reported Oct 6 12:51 PM — Oct 21 12:51 PM, Albany, Weather by CustomWeather, © 2014

Note: Actual official high and low records may vary slightly from our data, if they occured in-between our weather recording intervals... More about our weather records

Advertising

Albany weather history for previous 24 hours

 ConditionsComfort  
Time TempWeatherWind HumidityBarometerVisibility
12:51 PM
Oct 21
52 °FLight rain. Fog.No wind89%29.92 "Hg5 mi
12:04 PM51 °FLight rain. Fog.3 mph92%29.94 "Hg4 mi
11:51 AM51 °FLight rain. Fog.3 mph89%29.94 "Hg4 mi
10:51 AM50 °FLight rain. Fog.No wind89%29.94 "Hg3 mi
10:03 AM50 °FLight rain. Fog.3 mph89%29.93 "Hg3 mi
9:51 AM50 °FLight rain. Fog.5 mph89%29.93 "Hg2 mi
8:51 AM50 °FLight rain. Fog.3 mph89%29.92 "Hg4 mi
7:51 AM49 °FLight rain. Fog.3 mph90%29.91 "Hg6 mi
6:51 AM49 °FLight rain. Fog.No wind90%29.91 "Hg6 mi
5:51 AM49 °FLight rain. Overcast.No wind86%29.90 "Hg10 mi
4:51 AM48 °FLight rain. Overcast.No wind86%29.90 "Hg10 mi
3:51 AM48 °FMostly cloudy.No wind83%29.90 "Hg10 mi
2:51 AM49 °FLight rain. Mostly cloudy.3 mph80%29.92 "Hg10 mi
1:51 AM52 °FLight rain. Mostly cloudy.10 mph64%29.92 "Hg10 mi
12:51 AM52 °FOvercast.7 mph59%29.93 "Hg10 mi
11:51 PM
Oct 20
52 °FOvercast.8 mph59%29.93 "Hg10 mi
10:51 PM52 °FOvercast.8 mph57%29.95 "Hg10 mi
9:51 PM52 °FOvercast.8 mph55%29.95 "Hg10 mi
8:51 PM50 °FOvercast.3 mph63%29.94 "Hg10 mi
7:51 PM52 °FMostly cloudy.5 mph55%29.94 "Hg10 mi
6:51 PM52 °FMostly cloudy.6 mph53%29.95 "Hg10 mi
5:51 PM52 °FMostly cloudy.6 mph50%29.95 "Hg10 mi
4:51 PM52 °FPartly sunny.13 mph50%29.95 "Hg10 mi
3:51 PM53 °FPartly sunny.13 mph48%29.95 "Hg10 mi
2:51 PM55 °FPartly sunny.13 mph45%29.95 "Hg10 mi
Weather by CustomWeather, © 2014

See weather overviewHow to use our weather pages